Regional Weather Roundup
Issued by NWS Charleston, SC

Home | Current Version | Previous Version | Text Only | Print | Product List | Glossary On
Versions: 1 2 3 4 5 6 7 8 9 10 11 12 13 14 15 16 17 18 19 20 21 22 23 24 25 26 27 28 29 30 31 32 33 34 35 36 37 38 39 40 41 42 43 44 45 46 47 48 49 50
000
ASUS42 KCHS 281128
RWRCHS

REGIONAL WEATHER ROUNDUP
NATIONAL WEATHER SERVICE CHARLESTON SC
700 AM EDT SAT MAY 28 2016

NOTE: "FAIR" INDICATES FEW OR NO CLOUDS BELOW 12,000 FEET WITH NO
SIGNIFICANT WEATHER AND/OR OBSTRUCTIONS TO VISIBILITY.

NOT ALL STATIONS ARE QUALITY CONTROLLED. USE DATA WITH CAUTION...
ESPECIALLY DEWPOINT OBSERVATIONS.

SCZ027-030-031-034>040-042>050-281200-
...SOUTHEAST SOUTH CAROLINA...

CITY           SKY/WX    TMP DP  RH WIND       PRES   REMARKS
N CHARLESTON   MOCLDY    71  67  87 NE7       30.09R
WATERFRONT PRK   N/A     72  70  93 N7        30.06R
MOUNT PLEASANT FAIR      70  70 100 CALM      30.10R
JOHNS ISLAND   FAIR      72  70  94 N6        30.09R
PINOPOLIS        N/A     73  68  83 NE10      30.02R
MONCKS CORNER  PTSUNNY   68  64  88 NE5       30.11R
SUMMERVILLE    PTSUNNY   70  70 100 CALM      30.11R
BEAUFORT MCAS  CLOUDY    72  69  90 N5        30.09R
BEAUFORT ARPT  CLOUDY    72  68  88 CALM      30.09R
HILTON HEAD IS MOCLDY    72  72 100 N7        30.09R
WALTERBORO     MOSUNNY   72  72 100 NE6       30.10S
ALLENDALE      FAIR      68  64  88 CALM      30.09S

...SOUTHERN MIDLANDS AND PEE DEE...

CITY           SKY/WX    TMP DP  RH WIND       PRES   REMARKS
GEORGETOWN     FAIR      70  68  94 N7        30.11R
KINGSTREE      DRIZZLE   68  63  83 CALM      30.13R
ORANGEBURG     CLOUDY    69  64  84 NE6       30.12R
BARNWELL       FAIR      64  64 100 N3        30.11S
AIKEN          FAIR      61  55  82 CALM      30.16R
MANNING        FAIR      68  64  88 NE3       30.13R
COLUMBIA       MOCLDY    63  58  83 S3        30.12R
SUMTER         CLOUDY    65  61  85 NE5       30.12R
FLORENCE       CLOUDY    67  63  87 N5        30.14R
MYRTLE BEACH   MOCLDY    70  61  73 NE9       30.13R
N MYRTLE BEACH MOCLDY    68  66  93 NE7       30.11R

$$

GAZ063-065-086>088-099>101-113>116-118-119-134>141-150-281200-
...SOUTHEAST GEORGIA...

CITY           SKY/WX    TMP DP  RH WIND       PRES   REMARKS
SAVANNAH ARPT  MOCLDY    67  65  93 N7        30.08R
HUNTER AAF     PTCLDY    71  70  99 VRB2      30.04S
FORT STEWART   CLEAR     66  65  94 CALM      30.05R
STATESBORO     CLEAR     65  65  99 CALM      30.10R
SYLVANIA       MOSUNNY   65  63  92 CALM      30.11R
CLAXTON        FAIR      63  63 100 CALM      30.10R

...CSRA...CENTRAL AND FAR SOUTHEAST GEORGIA...

CITY           SKY/WX    TMP DP  RH WIND       PRES   REMARKS
THOMSON        CLEAR     59  59 100 CALM      30.18R
AUGUSTA-BUSH   CLEAR     58  58 100 CALM      30.11R
AUGUSTA-DANIEL CLEAR     66  60  81 N6        30.13R
SWAINSBORO     FAIR      64  63  94 NE3       30.12R
VIDALIA        CLEAR     64  64 100 NE3       30.11R
EASTMAN        FAIR      61  61 100 CALM      30.13R
HAZLEHURST     FAIR      67  67 100 CALM      30.09R
ALMA           CLEAR     65  64  97 CALM      30.08R FOG
WAYCROSS       CLEAR     64  64 100 CALM      30.09R FOG
JESUP          FAIR      63  63 100 CALM      30.08R FOG
BAXLEY         FAIR      66  64  94 CALM      30.09R FOG
BRUNSWICK      PTCLDY    64  63  94 NW3       30.07R
SAINT SIMONS   CLEAR     74  71  91 MISG      30.04R

$$

SCZ027-028-034-036>038-045-046-048>050-GAZ119-141-281200-
...LAKE AND SUPPLEMENTAL COASTAL OBSERVATIONS...

STATION/POSITION TIME  TEMP    WIND        PRES    WAVE   SWELL
                       AIR SEA DIR/SP/G            HT/PER HT/PER/DIR
                 (UTC) (F)     (DEG/KT/KT) (MB)    (FT/S) (FT/S/D)
WINYAH BAY       1000   74      30/  7     1018.0S
LAKE MURRAY      1100   65      CALM  /  2 1020.0R
ACE BASIN NERRS  1000   70      10/  2     1018.0S
FORT PULASKI     1100   74 77   30/  8/ 10 1018.5R
SAPELO ISLAND    1100   72      40/  4     1018.0R

$$

ANZ835-935-AMZ111-154-330-350-352-354-370-450-454-472-281200-
...C-MAN AND BUOY OBSERVATIONS...

STATION/POSITION TIME  TEMP    WIND        PRES    WAVE   SWELL
                       AIR SEA DIR/SP/G            HT/PER HT/PER/DIR
                 (UTC) (F)     (DEG/KT/KT) (MB)    (FT/S) (FT/S/D)
BUOY 41004       1050   77 76   60/ 14/ 16 1017.5R   5/ 7   3/ 7
BUOY 41008       1050   75 76   50/ 16/ 17 1017.0R   3/ 7   2/120/ 7
FOLLY BEACH CMAN 1100   72      20/ 10/ 12 1019.0R
CAPERS NEARSHORE 1008   75 76   50/ 14/ 17 1017.8R
FRIPP NEARSHORE  1108   75 77   40/ 12/ 17 1017.9R


STATION/POSITION TIME  TEMP    WIND        PRES    WAVE   SWELL
                       AIR SEA DIR/SP/G            HT/PER HT/PER/DIR
                 (UTC) (F)     (DEG/KT/KT) (MB)    (FT/S) (FT/S/D)
5E ST. MARYS GA  1101      77                N/A     3/ 8
FRYING PAN BUOY  1100   77 76   60/ 16/ 17 1018.8R
BUOY 41025       1050   77 78  120/ 12/ 14 1021.0R   4/ 8   3/130/ 8
CAPE LOOKOUT NC  1100   74      80/  8/  9 1020.3R
BUOY 41002       1050   76 77   80/ 16/ 19 1017.9R   5/ 8   3/110/ 8
BUOY 41010       1020   77 78  320/ 12/ 16 1013.9R
ST AUGUSTINE FL  1100   77 78   20/ 10/ 11 1017.4R


$$




USA.gov is the U.S. government's official web portal to all federal, state and local government web resources and services.